Regional Weather Roundup
Issued by NWS

Home | Current Version | Previous Version | Graphics & Text | Print | Product List | Glossary On
Versions: 1 2 3 4 5 6 7 8 9 10 11 12 13 14 15 16 17 18 19 20 21 22 23 24 25 26 27 28 29 30 31 32 33 34 35 36 37 38 39 40 41 42 43 44 45 46 47 48 49 50
000
ASUS44 KMEG 310610
RWRTN
TENNESSEE HOURLY STATE WEATHER ROUNDUP
NATIONAL WEATHER SERVICE MEMPHIS TN
100 AM CDT FRI JUL 31 2015

TNZ002-004-019-021-049-052-054-088>092-310700-
WEST TENNESSEE

CITY           SKY/WX    TMP DP  RH WIND       PRES   REMARKS
MEMPHIS INTL   PTCLDY    78  61  55 NE5       30.06F
NWS MEMPHIS      N/A     75 N/A N/A MISG        N/A
JACKSON        CLEAR     68  63  84 CALM      30.08F
DYERSBURG        N/A    N/A N/A N/A MISG        N/A
PARIS          CLEAR     63  61  94 CALM      30.10F
LEXINGTON      CLEAR     66  63  88 N5        30.07F
$$

TNZ008-025-027-028-033-062-065-066-310700-
NORTH MIDDLE TENNESSEE

CITY           SKY/WX    TMP DP  RH WIND       PRES   REMARKS
NASHVILLE      CLEAR     72  62  71 N5        30.08F
CLARKSVILLE    MOCLDY    68  65  90 CALM      30.09S
SMYRNA         CLEAR     68  63  84 CALM      30.09S
CROSSVILLE     CLEAR     68  59  73 N5        30.12F
$$

TNZ061-075-076-078-094-096-097-310700-
SOUTH MIDDLE TENNESSEE

CITY           SKY/WX    TMP DP  RH WIND       PRES   REMARKS
FAYETTEVILLE   CLEAR     70  61  73 NE7       30.06F
TULLAHOMA      CLEAR     68  61  77 N5        30.08F
WINCHESTER     CLEAR     66  63  88 CALM      30.07F
MCMINNVILLE    CLEAR     66  66 100 CALM      30.09S
COLUMBIA       CLEAR     68  68 100 N3        30.06F
SHELBYVILLE    CLEAR     68  63  83 N6        30.08F
$$

TNZ017-018-042-046-047-310700-
NORTHEAST TENNESSEE

CITY           SKY/WX    TMP DP  RH WIND       PRES   REMARKS
TRI CITIES     PTCLDY    67  62  84 N3        30.07F
ELIZABETHTON   CLEAR     64  63  94 CALM      30.08S
$$

TNZ012-013-036-069-073-074-310700-
CENTRAL EAST TENNESSEE

CITY           SKY/WX    TMP DP  RH WIND       PRES   REMARKS
KNOXVILLE      MOCLDY    74  64  71 N5        30.05F
OAK RIDGE      CLEAR     69  63  81 CALM      30.07F
GATLINBURG     MOCLDY    73  63  68 CALM      30.05F
MORRISTOWN     MOCLDY    73  61  64 NE3       30.08S
$$

TNZ083-085-099-310700-
SOUTHEAST TENNESSEE

CITY           SKY/WX    TMP DP  RH WIND       PRES   REMARKS
CHATTANOOGA    CLEAR     76  62  62 N10       30.03F
$$

SKY/WX REPORTED AS FAIR MEANS FEW OR NO CLOUDS BELOW
12 THOUSAND FEET.




USA.gov is the U.S. government's official web portal to all federal, state and local government web resources and services.